Location: Newark
(48.2308°N, 120.8549°W)
Time: 16:02:05
(UTC+00:00)

X-37B - Visible Passes

Search period start: 15 June 2021 00:00
Search period end: 25 June 2021 00:00
Orbit: 386 x 389 km, 45.0° (Epoch: 10 June)

Date Brightness Start Highest point End Pass type
(mag) Time Alt. Az. Time Alt. Az. Time Alt. Az.
15 Jun 1.6 09:45:38 28° SSE 09:45:39 28° SSE 09:48:26 10° E visible
15 Jun 1.0 11:18:54 10° WSW 11:21:58 47° S 11:25:02 10° ESE visible
16 Jun 3.1 08:49:31 12° ESE 08:49:31 12° ESE 08:49:54 10° ESE visible
16 Jun 1.0 10:21:47 19° WSW 10:23:41 43° S 10:26:44 10° E visible
17 Jun 1.3 09:25:42 35° SSE 09:25:42 35° SSE 09:28:23 10° E visible
17 Jun 0.9 10:58:44 10° W 11:01:48 44° S 11:04:50 10° ESE visible
18 Jun 3.2 08:29:40 12° ESE 08:29:40 12° ESE 08:29:58 10° E visible
18 Jun 0.8 10:01:56 24° WSW 10:03:30 47° S 10:06:34 10° ESE visible
19 Jun 1.4 09:05:59 35° SE 09:05:59 35° SE 09:08:16 10° E visible
19 Jun 1.1 10:38:36 10° W 10:41:36 38° SSW 10:44:35 10° ESE visible
20 Jun 0.8 09:42:30 35° SW 09:43:19 44° S 09:46:22 10° ESE visible
20 Jun 1.9 11:17:02 10° WSW 11:19:34 22° SSW 11:22:05 10° SSE visible
21 Jun 2.6 08:47:09 18° ESE 08:47:09 18° ESE 08:48:06 10° ESE visible
21 Jun 1.4 10:19:29 17° WSW 10:21:22 30° SSW 10:24:11 10° SE visible
22 Jun 2.5 09:25:04 18° SE 09:25:04 18° SE 09:26:06 10° ESE visible
22 Jun 2.3 10:57:29 11° WSW 10:59:14 15° SSW 11:01:07 10° S visible
23 Jun 2.4 05:10:37 10° S 05:12:23 14° SSE 05:13:42 12° SE visible
23 Jun 2.8 06:45:31 10° WSW 06:46:08 14° SW 06:46:08 14° SW visible
24 Jun 1.5 05:47:26 10° SW 05:50:15 29° SSE 05:51:55 18° ESE visible
24 Jun 2.8 07:23:29 10° WSW 07:24:16 16° WSW 07:24:16 16° WSW visible
